Weather in New Glasgow

Canada     45°35′20″N   62°38′39″W
temp.,
°C
wind,
m/s
gust,
m/s
humid.,
%
clouds,
%
prec.,
mm/h
press.,
hPa
HPBL,
m
5 march, fri
fri523:00−6w4986100 0.2 992811
02:00−8wnw479199 0.4 994633
05:00−11w388390 0.1 995545
08:00−10w497847 0.1 996674
11:00−6wsw476982 0.1 997967
14:00−6wsw477691 0.2 997854
17:00−7wsw4780100 0.2 997706
20:00−8wsw3889100 0.2 1000485
6 march, sat
sat623:00−9wsw279096 0.1 1001471
02:00−10sw269192 0.1 1002234
05:00−9sw279683 0.1 1003380
08:00−8wsw598486 0.1 1006745
11:00−5wsw5869100 0.0 1007971
14:00−2wsw5863100 0.1 10071170
17:00−3wsw487298 0.0 10091078
20:00−6wsw399062 0.0 1012360
7 march, sun
sun723:00−7sw39900 0.0 1014328
02:00−8sw399411 0.0 1015282
05:00−7sw399561 0.0 1016391
08:00−7wsw378775 0.1 1019617
11:00−4wsw476499 0.0 1019941
14:00−2wsw456064 0.0 10191078
17:00−3wnw247177 0.0 1020660
20:00−7nne118869 0.0 102221
8 march, mon
mon823:00−8nnw11920 0.0 102221
02:00−8nw11940 0.0 102121
05:00−9nw259780 0.0 1022247
08:00−9nw258688 0.1 1023298
11:00−4nw346352 0.0 1023743
14:00−4nnw346535 0.0 1023724
17:00−5nnw347432 0.0 1023575
20:00−7ssw118617 0.0 102421
9 march, tue
tue923:00−7sw249113 0.0 1023111
02:00−7sw279434 0.0 1023165
05:00−5sw399294 0.0 1022264
08:00−3sw489297 0.1 1020353
11:00+1sw478597 0.5 1019703
14:00+1wnw478998 1.1 1018706
17:000nw498198 0.1 10201069
20:00−1wnw3109699 0.3 1023632